Location: Unspecified
(45.6669°N, 0.0000°E)
Time: 14:19:37
(UTC+00:00)

ISS - Pass Details

Date: 22 May 2019
Orbit: 408 x 418 km, 51.6° (Epoch: 25 June)

Event Time Altitude Azimuth Distance (km) Brightness Sun altitude
Rises 23:46:26 0° 297° (WNW) 2,366 0.5 -23.8°
Reaches altitude 10° 23:48:36 10° 305° (NW) 1,502 -0.5 -23.8°
Enters shadow 23:51:35 41° 4° (N) 622 -2.5 -23.8°
